AL7BX-WX Weather Reports


Display with metric or nautical units.
time (UTC)temp
F
wind
direction
speed
MPH
gust
MPH
rain 1hr
in
rain 24hr
in
rain mn
in
humidity
%
barometer
mb
20260504203603 67 203 12.0 21.0 0.00 0.00 0.00 33
20260504202703 66 207 11.0 19.0 0.00 0.00 0.00 35
20260504201803 66 209 10.0 20.0 0.00 0.00 0.00 36
20260504200903 66 204 10.0 21.0 0.00 0.00 0.00 36
20260504200003 66 211 9.0 21.0 0.00 0.00 0.00 36
20260504195403 66 216 10.0 21.0 0.00 0.00 0.00 36
20260504194503 66 208 9.0 18.0 0.00 0.00 0.00 38
20260504193813 67 198 8.0 18.0 0.00 0.00 0.00 36
20260504192703 66 201 9.0 17.0 0.00 0.00 0.00 35
20260504191803 66 212 9.0 22.0 0.00 0.00 0.00 38
20260504191113 66 212 10.0 21.0 0.00 0.00 0.00 40
20260504190003 65 193 10.0 19.0 0.00 0.00 0.00 39
20260504185403 66 195 9.0 19.0 0.00 0.00 0.00 40
20260504184503 65 188 10.0 19.0 0.00 0.00 0.00 41
20260504183603 65 185 10.0 18.0 0.00 0.00 0.00 40
20260504182703 64 177 10.0 17.0 0.00 0.00 0.00 39
20260504181803 63 175 10.0 18.0 0.00 0.00 0.00 42
20260504180903 64 194 12.0 23.0 0.00 0.00 0.00 42
20260504180214 65 188 12.0 20.0 0.00 0.00 0.00 41
20260504175403 63 186 12.0 22.0 0.00 0.00 0.00 43
20260504174503 61 189 10.0 19.0 0.00 0.00 0.00 48
20260504173603 61 195 10.0 21.0 0.00 0.00 0.00 45
20260504172703 63 206 3.0 19.0 0.00 0.00 0.00 42
20260504172013 62 234 1.0 4.0 0.00 0.00 0.00 45
20260504170903 62 269 4.0 7.0 0.00 0.00 0.00 45
20260504170214 62 273 4.0 7.0 0.00 0.00 0.00 47
20260504150903 56 144 5.0 14.0 0.00 0.00 0.00 52
20260504140903 54 171 2.0 3.0 0.00 0.00 0.00 65
20260504081803 47 80 0.0 2.0 0.00 0.00 0.00 60
20260504080903 47 80 1.0 4.0 0.00 0.00 0.00 57
20260504050003 58 159 2.0 4.0 0.00 0.00 0.00 42
20260504045613 58 154 2.0 6.0 0.00 0.00 0.00 42
20260504044712 58 157 1.0 7.0 0.00 0.00 0.00 42
20260504043603 59 284 0.0 2.0 0.00 0.00 0.00 40
20260504042703 59 279 3.0 6.0 0.00 0.00 0.00 40
20260504042012 60 257 2.0 6.0 0.00 0.00 0.00 39
20260504040903 61 114 2.0 5.0 0.00 0.00 0.00 38
20260504040003 61 121 5.0 12.0 0.00 0.00 0.00 37
20260504035403 61 198 4.0 12.0 0.00 0.00 0.00 33
20260504034505 61 121 2.0 3.0 0.00 0.00 0.00 38
20260504033813 61 126 3.0 7.0 0.00 0.00 0.00 38
20260504032703 60 180 3.0 7.0 0.00 0.00 0.00 39
20260504031803 61 155 4.0 9.0 0.00 0.00 0.00 39
20260504030903 61 144 5.0 13.0 0.00 0.00 0.00 39
20260504030004 61 153 6.0 13.0 0.00 0.00 0.00 38
20260504025403 61 147 6.0 16.0 0.00 0.00 0.00 38
20260504024503 61 159 5.0 13.0 0.00 0.00 0.00 38
20260504023603 60 119 4.0 10.0 0.00 0.00 0.00 39
20260504022703 60 110 4.0 11.0 0.00 0.00 0.00 41
20260504021803 60 96 7.0 17.0 0.00 0.00 0.00 41
20260504020903 60 107 7.0 17.0 0.00 0.00 0.00 42
20260504020003 60 110 7.0 17.0 0.00 0.00 0.00 42
20260504015403 61 129 7.0 16.0 0.00 0.00 0.00 41
20260504014503 62 139 6.0 15.0 0.00 0.00 0.00 39
20260504013603 63 148 9.0 18.0 0.00 0.00 0.00 35
20260504012914 64 149 11.0 21.0 0.00 0.00 0.00 34
20260504011803 65 141 8.0 18.0 0.00 0.00 0.00 31
20260504010903 65 149 7.0 13.0 0.00 0.00 0.00 31
20260504010214 65 151 5.0 13.0 0.00 0.00 0.00 31
20260504005403 65 153 6.0 15.0 0.00 0.00 0.00 31
20260504004503 65 139 9.0 21.0 0.00 0.00 0.00 30
20260504003603 66 141 12.0 21.0 0.00 0.00 0.00 30
20260504002913 66 149 13.0 23.0 0.00 0.00 0.00 30
20260504001803 68 156 7.0 27.0 0.00 0.00 0.00 28
20260504000903 69 153 6.0 13.0 0.00 0.00 0.00 26
20260504000003 70 153 8.0 16.0 0.00 0.00 0.00 25
20260503235403 70 164 8.0 17.0 0.00 0.00 0.00 25
20260503234503 71 154 10.0 18.0 0.00 0.00 0.00 25
20260503233603 73 170 9.0 22.0 0.00 0.00 0.00 24
20260503232703 74 187 6.0 13.0 0.00 0.00 0.00 23
20260503232012 74 210 6.0 13.0 0.00 0.00 0.00 22
20260503230903 75 191 6.0 18.0 0.00 0.00 0.00 23
20260503230003 75 143 7.0 13.0 0.00 0.00 0.00 22
20260503225403 74 132 7.0 13.0 0.00 0.00 0.00 21
20260503224503 75 130 5.0 15.0 0.00 0.00 0.00 21
20260503223813 74 112 5.0 10.0 0.00 0.00 0.00 22
20260503222703 75 164 5.0 11.0 0.00 0.00 0.00 22
20260503221803 76 230 8.0 15.0 0.00 0.00 0.00 23
20260503221113 76 210 8.0 15.0 0.00 0.00 0.00 22
20260503220003 77 191 6.0 14.0 0.00 0.00 0.00 21
20260503215403 76 171 7.0 14.0 0.00 0.00 0.00 21
20260503214503 76 184 7.0 18.0 0.00 0.00 0.00 21
20260503213603 76 166 7.0 13.0 0.00 0.00 0.00 22
20260503212703 76 187 10.0 18.0 0.00 0.00 0.00 21
20260503211803 77 209 9.0 18.0 0.00 0.00 0.00 21
20260503210903 76 194 7.0 21.0 0.00 0.00 0.00 22
20260503210003 76 197 7.0 14.0 0.00 0.00 0.00 21
20260503205403 75 229 7.0 14.0 0.00 0.00 0.00 21
20260503204503 76 208 7.0 14.0 0.00 0.00 0.00 20